Location: *
(51.0333°S, 178.4667°E)
Time: 10:54:01
(UTC+00:00)

FALCON 9 R/B - Pass Details

Date: 15 November 2019
Orbit: 286 x 10165 km, 34.5° (Epoch: 05 December)

Event Time Altitude Azimuth Distance (km) Brightness Sun altitude
Rises 10:44:23 0° 277° (W) 6,896 7.0 -19.0°
Reaches altitude 10° 10:52:20 10° 293° (WNW) 4,030 5.6 -19.3°
Enters shadow 10:57:03 15° 323° (NW) 2,549 4.3 -19.5°
